   O. V. Kravchenko, Y. V. Tanasiychuk. Measurer A. M. Kozhukhov. 0.50-m
   f/3.8 reflector + CCD.
(L34) Galhassin Robotic Telescope, Isnello  (N37.939358 E14.020610)  Italy.
   Observer A. Nastasi. 0.40-m reflector + CCD.
(L47) Osservatorio Astronomico, Piobbico  (N43.585893 E12.507110)  Italy.
   Observers A. Teseo, A. Annamelia. 0.20-m f/6.3 Schmidt-Cassegrain + CCD.
(L65) Bredenkamp Observatory, Bremen  (N53.075279 E8.828310)  Germany.
   Observer H. Duin. 0.23-m f/6.3 reflector + CMO.
(M26) Zen Observatory, Scandicci  (N43.774583 E11.134940)  Italy.  Observers
   M. Lombardo, K. Lombardo. Measurer M. Lombardo. 0.30-m f/8
   Ritchey-Chrétien + CCD.
(M45) Starhopper Observatory, Sfantu Gheorghe  (N45.865582 E25.768900)
   Romania.  Observer F. Ursache. 0.41-m f/7.5 reflector + CMO.
(T05) ATLAS-HKO, Haleakala  (N20.707551 W156.257010)  US/Hawaii.  Observers
   L. Denneau, A. Heinze, H. Weiland, J. Tonry, H. Flewelling, A.
   Fitzsimmons, D. Young, B. Stalder. Measurers L. Denneau, A. Heinze, J.
   Tonry. 0.5-m f/2.0 Schmidt + CCD.
(U55) Golden Ears Observatory, Maple Ridge  (N49.253277 W122.585440)
   Canada/BritColumbia.  Observer B. Kumar. 0.36-m f/7 Schmidt-Cassegrain +
   CCD.
(Z80) Northolt Branch Observatory  (N51.554659 W0.371920)  UK/England.
   Observer G. Wells. Measurer D. Bamberger. 0.25-m f/8 Ritchey-Chrétien +
   CCD.

Orbital elements:  A118s6e
   Perihelion 2024 Sep 14.39077 +/- 0.25 TT =  9:22:42 (JD 2460567.89077)
Epoch 2024 Jul 15.0 TT = JDT 2460506.5   Earth MOID: 0.0286   Ve: 0.0826
M 331.43644019 +/- 0.7              (J2000 ecliptic)             AutoNEOCP
n   0.46527448 +/- 0.0107           Peri.  277.81362 +/- 0.23
a   1.64941482 +/- 0.0255           Node   122.48829 +/- 0.035
e   0.6824591 +/- 0.00525           Incl.   38.11646 +/- 0.28
P   2.118/773.722d         H 20.52  G  0.15   U  9.7
q 0.52375652 +/- 0.000688    Q 2.77507311 +/- 0.0517
86 of 89 observations 2024 July 14-15 (36.3 hr); mean residual 0".37
Residuals in arcseconds: 
240714 T05  .40-  .52-    240714 L01  .03-  .01+    240714 Z80  .40-  .17+    
240714 T05  .18+  .03+    240714 104  .23-  .31+    240714 958  .04-  .27-    
240714 T05  .11+  .18-    240714 G02  .57-  .30+    240714 L34  .16+  .04-    
240714 T05  .50+  .43+    240714 J57  .16-  .02-    240714 L34  .24+  .34-    
240714 M45  .09+  .24-    240714 L34  .03+  .42-    240715 U55  .98-  1.1+    
240714 M45  .12-  .34-    240714 J95  .10+  .01+    240715 U55  .75-  .10+    
240714 M45  .01-  .25+    240714 J95  .01-  .11+    240715 658( 2.1+  .42+)   
240714 595  .24-  .39+    240714 204  .21+  .06-    240715 658( 1.9+  .79+)   
240714 106  .04-  .11-    240714 G02  1.0-  .63+    240715 658( 1.7+  .56+)   
240714 L18  .24+  .27+    240714 L34  .19+  .06-    240715 U55  .13+  .37-    
240714 595  .18+  .33+    240714 L65  .01+  .06-    240715 658  1.4+  .62+    
240714 126  1.1+  .14-    240714 G02  .99-  .29+    240715 658  1.5+  .06+    
240714 106  .03+  .20-    240714 I93  .13+  .13-    240715 C82  .32-  .04-    
240714 L18  .14+  .25-    240714 L65  .10-  .25-    240715 C82  .30-  .09-    
240714 106  .08-  .14+    240714 104  .36+  .34-    240715 L47  .56-  .89+    
240714 L18  .20-  .28+    240714 I93  .17-  .21-    240715 L47  .46+  1.1+    
240714 126  .06-  .08-    240714 511  .06-  .68+    240715 K51  .06+  .41-    
240714 106  .03-  .10-    240714 Z80  .28-  .18+    240715 K51  .13+  .41-    
240714 595  .32-  .15-    240714 511  .14-  .06-    240715 K51  .02+  .00     
240714 L18  .47-  .07+    240714 958  .25-  .01+    240715 106  .01-  .13-    
240714 204  .25+  .12+    240714 I93  .00   .24-    240715 M26  .18+  .33+    
240714 204  .09+  .03+    240714 511  .09-  .10+    240715 106  .05+  .41-    
240714 J57  .02-  .38+    240714 511  .83-  .13-    240715 106  .05-  .37-    
240714 J95  .10+  .16-    240714 511  .21+  .18-    240715 M26  .47+  .24-    
240714 L01  .40+  .37-    240714 511  .32-  .22-    240715 106  .03-  .31-    
240714 L01  .06-  .10-    240714 958  .22+  .25-    240715 M26  .39-  .05-    
240714 J57  .03-  .18-    240714 511  .13+  .16-    240715 G00  .24-  .65-    
240714 204  .00   .18-    240714 511  .59-  .31+    240715 G00  .17+  .25-    
240714 L01  .11+  .17-    240714 511  .26-  .48+    240715 G00  .01-  .23-    
240714 L65  .08-  .10-    240714 511  .07+  .15-    

Ephemerides (geocentric):
Date (UTC) HH   RA             Dec           delta  r     elong  mag " sig PA
---- --------  ------------   ------------  ------ ------ -----  --- --------
2024 07 16 12  18 57 09.768   +28 59 07.47  .17128 1.1309 128.5 18.7 .103  48
2024 07 16 13  18 56 45.116   +28 59 42.31  .17069 1.1304 128.4 18.7 .114  55
2024 07 16 14  18 56 20.290   +29 00 16.99  .17010 1.1299 128.4 18.7 .126  62
2024 07 16 15  18 55 55.290   +29 00 51.50  .16951 1.1294 128.4 18.6 .141  67
2024 07 16 16  18 55 30.112   +29 01 25.83  .16892 1.1289 128.3 18.6 .158  72
2024 07 16 17  18 55 04.756   +29 01 59.99  .16833 1.1284 128.3 18.6 .176  76
2024 07 16 18  18 54 39.219   +29 02 33.97  .16774 1.1279 128.3 18.6 .196  79
2024 07 16 19  18 54 13.500   +29 03 07.75  .16715 1.1275 128.2 18.6 .217  82
2024 07 16 20  18 53 47.598   +29 03 41.34  .16656 1.1270 128.2 18.6 .239  84
2024 07 16 21  18 53 21.510   +29 04 14.74  .16597 1.1265 128.2 18.6 .263  86
2024 07 16 22  18 52 55.234   +29 04 47.93  .16538 1.1260 128.1 18.6 .288  87
2024 07 16 23  18 52 28.769   +29 05 20.91  .16480 1.1255 128.1 18.6 .314  89
2024 07 17 00  18 52 02.113   +29 05 53.68  .16421 1.1250 128.0 18.6 .341  90
2024 07 17 01  18 51 35.264   +29 06 26.22  .16362 1.1245 128.0 18.6 .370  91
2024 07 17 02  18 51 08.221   +29 06 58.54  .16304 1.1240 128.0 18.6 .399  92
2024 07 17 03  18 50 40.980   +29 07 30.63  .16245 1.1235 127.9 18.6 .430  93
2024 07 17 04  18 50 13.541   +29 08 02.48  .16187 1.1230 127.9 18.6 .462  94
2024 07 17 05  18 49 45.902   +29 08 34.09  .16128 1.1225 127.8 18.5 .495  94
2024 07 17 06  18 49 18.059   +29 09 05.44  .16070 1.1220 127.8 18.5 .530  95
2024 07 17 07  18 48 50.013   +29 09 36.54  .16011 1.1215 127.8 18.5 .566  95
2024 07 17 08  18 48 21.759   +29 10 07.37  .15953 1.1210 127.7 18.5 .602  96
2024 07 17 09  18 47 53.297   +29 10 37.94  .15895 1.1205 127.7 18.5 .641  96
2024 07 17 10  18 47 24.625   +29 11 08.22  .15837 1.1200 127.6 18.5 .680  97
2024 07 17 11  18 46 55.739   +29 11 38.23  .15779 1.1195 127.6 18.5 .721  97
2024 07 17 12  18 46 26.639   +29 12 07.94  .15721 1.1190 127.5 18.5 .763  97
2024 07 17 13  18 45 57.321   +29 12 37.35  .15663 1.1186 127.5 18.5 .806  98
2024 07 17 14  18 45 27.785   +29 13 06.46  .15605 1.1181 127.4 18.5 .851  98
2024 07 17 15  18 44 58.027   +29 13 35.25  .15547 1.1176 127.4 18.5 .897  98
2024 07 17 16  18 44 28.045   +29 14 03.72  .15489 1.1171 127.4 18.5 .944  98
2024 07 17 17  18 43 57.838   +29 14 31.86  .15431 1.1166 127.3 18.5 0.99  98
2024 07 17 18  18 43 27.402   +29 14 59.66  .15374 1.1161 127.3 18.5 1.04  98
2024 07 17 19  18 42 56.737   +29 15 27.12  .15316 1.1156 127.2 18.4 1.09  99
2024 07 17 20  18 42 25.838   +29 15 54.22  .15258 1.1151 127.2 18.4 1.15  99
2024 07 17 21  18 41 54.704   +29 16 20.96  .15201 1.1146 127.1 18.4 1.20  99
2024 07 17 22  18 41 23.333   +29 16 47.32  .15143 1.1141 127.1 18.4 1.26  99
2024 07 17 23  18 40 51.723   +29 17 13.30  .15086 1.1136 127.0 18.4 1.32  99
2024 07 18 00  18 40 19.870   +29 17 38.89  .15029 1.1131 126.9 18.4 1.38  99
2024 07 18 01  18 39 47.772   +29 18 04.08  .14971 1.1126 126.9 18.4 1.44  99
2024 07 18 02  18 39 15.428   +29 18 28.85  .14914 1.1121 126.8 18.4 1.50  99
2024 07 18 03  18 38 42.833   +29 18 53.21  .14857 1.1116 126.8 18.4 1.56  99
2024 07 18 04  18 38 09.987   +29 19 17.13  .14800 1.1111 126.7 18.4 1.63  99
2024 07 18 05  18 37 36.886   +29 19 40.61  .14743 1.1106 126.7 18.4 1.70  99
2024 07 18 06  18 37 03.527   +29 20 03.64  .14686 1.1101 126.6 18.4 1.77  99
2024 07 18 07  18 36 29.909   +29 20 26.20  .14629 1.1096 126.6 18.4 1.84  99
2024 07 18 08  18 35 56.028   +29 20 48.29  .14572 1.1091 126.5 18.4 1.91  99
2024 07 18 09  18 35 21.882   +29 21 09.90  .14516 1.1086 126.4 18.3 1.99  99
2024 07 18 10  18 34 47.468   +29 21 31.00  .14459 1.1081 126.4 18.3 2.06  99
2024 07 18 11  18 34 12.783   +29 21 51.59  .14402 1.1076 126.3 18.3 2.14  99